STARLINK-32002 (60200 NORAD) Tracking and Keplerian Element Data

This shows tracking and keplerian element data for the satellite.

Feedback or suggestion? Click here.




ElementValue
Catalog60200
NameSTARLINK-32002
Epoch Orbit1562
Epoch Day286.2221401
Epoch Year2024
RAAN191.6146
Inclination53.1606
Eccentricity0.0001384
Argument of Perigee72.8107
Mean Anonmoly287.3049
Mean Motion15.39623782
Decay Rate-3.022E-05
L11 60200U 24124T 24286.22214010 -.00003022 00000+0 -65589-4 0 9990
L22 60200 53.1606 191.6146 0001384 72.8107 287.3049 15.39623782 15623



Live tracking and technical data element details for STARLINK-32002 (NORAD 60200). STARLINK-32002 can be tracked NOW for your location showing map with azimuth and elevation plus other details from your city location.







IsCatalogInMostPopularTable: catalog: 60200, numindb: 11
Update: records affected: 1



GetName: 60200 STARLINK-32002

Hit Count: updated at: Thu, 23 Jan 2025 15:09:57 GMT